Location: Ashton River Estates
(39.1762°N, 77.0261°W)
Time: 00:26:32
(UTC+00:00)

Aureole 3 Rocket - Pass Details

Date: 29 October 2020
Orbit: 399 x 1739 km, 82.5° (Epoch: 03 December)

Event Time Altitude Azimuth Distance (km) Brightness Sun altitude
Rises 23:23:40 0° 202° (SSW) 2,575 6.6 -14.8°
Reaches altitude 10° 23:25:33 10° 208° (SSW) 1,808 5.9 -15.2°
Maximum altitude 23:29:21 48° 284° (WNW) 862 4.2 -15.9°
Drops below altitude 10° 23:34:34 10° 358° (N) 2,479 6.1 -16.9°
Sets 23:37:33 0° 4° (N) 3,659 6.9 -17.5°
